TimeCST,TemperatureF,Dew PointF,Humidity,Sea Level PressureIn,VisibilityMPH,Wind Direction,Wind SpeedMPH,Gust SpeedMPH,PrecipitationIn,Events,Conditions,WindDirDegrees,DateUTC
12:54 AM,19.9,18.0,92,29.90,10.0,SSE,4.6,-,N/A,,Overcast,150,2013-01-18 06:54:00
1:54 AM,21.9,19.9,92,29.86,10.0,Calm,Calm,-,N/A,,Overcast,0,2013-01-18 07:54:00
2:54 AM,23.0,19.9,88,29.82,9.0,ESE,3.5,-,N/A,,Overcast,120,2013-01-18 08:54:00
3:54 AM,21.0,19.0,92,29.81,8.0,SSW,5.8,-,N/A,,Clear,200,2013-01-18 09:54:00
4:54 AM,27.0,21.9,81,29.78,10.0,SW,11.5,-,N/A,,Clear,230,2013-01-18 10:54:00
5:54 AM,28.0,23.0,81,29.77,10.0,SW,11.5,-,N/A,,Clear,220,2013-01-18 11:54:00
6:54 AM,28.9,23.0,78,29.76,10.0,WSW,9.2,-,N/A,,Mostly Cloudy,240,2013-01-18 12:54:00
7:54 AM,30.9,24.1,76,29.77,10.0,West,13.8,-,N/A,,Clear,260,2013-01-18 13:54:00
8:54 AM,30.0,24.1,79,29.80,10.0,NW,8.1,-,N/A,,Partly Cloudy,310,2013-01-18 14:54:00
9:54 AM,23.0,19.0,85,29.84,10.0,NNW,3.5,-,N/A,,Mostly Cloudy,330,2013-01-18 15:54:00
10:54 AM,25.0,19.9,81,29.83,10.0,Calm,Calm,-,N/A,,Clear,0,2013-01-18 16:54:00
11:54 AM,27.0,21.9,81,29.81,10.0,Calm,Calm,-,N/A,,Partly Cloudy,0,2013-01-18 17:54:00
12:54 PM,34.0,26.1,73,29.76,10.0,SSW,4.6,-,N/A,,Mostly Cloudy,210,2013-01-18 18:54:00
1:54 PM,36.0,28.0,73,29.73,10.0,SW,10.4,-,N/A,,Clear,220,2013-01-18 19:54:00
2:54 PM,37.0,28.9,73,29.74,10.0,Calm,Calm,-,N/A,,Mostly Cloudy,0,2013-01-18 20:54:00
3:54 PM,37.0,28.9,73,29.74,10.0,SW,12.7,-,N/A,,Overcast,230,2013-01-18 21:54:00
4:54 PM,37.0,28.9,73,29.74,10.0,WSW,10.4,-,N/A,,Mostly Cloudy,250,2013-01-18 22:54:00
5:54 PM,36.0,28.9,76,29.73,10.0,WSW,10.4,-,N/A,,Partly Cloudy,250,2013-01-18 23:54:00
6:54 PM,36.0,28.0,73,29.72,10.0,SW,12.7,-,N/A,,Partly Cloudy,230,2013-01-19 00:54:00
7:54 PM,35.1,28.0,76,29.71,10.0,SW,11.5,-,N/A,,Clear,230,2013-01-19 01:54:00
8:54 PM,34.0,28.0,79,29.72,10.0,SW,12.7,-,N/A,,Clear,230,2013-01-19 02:54:00
9:54 PM,35.1,27.0,72,29.71,10.0,SW,10.4,-,N/A,,Scattered Clouds,230,2013-01-19 03:54:00
10:54 PM,35.1,27.0,72,29.69,10.0,SW,12.7,-,N/A,,Overcast,220,2013-01-19 04:54:00
11:54 PM,37.0,27.0,67,29.71,10.0,West,20.7,27.6,N/A,,Partly Cloudy,260,2013-01-19 05:54:00